Content
SEND FEEDBACK

Daily
Averages
Monthly
Summary
Mexico

CANCUN, QUINTANA ROO


Home > North America > Mexico > Quintana Roo
Elevation: 30 feet     Latitude: 21 09N     Longitude: 086 49W

WEATHER
 
SELECT A DAY
Number of Records: 166,401;   Date Range: 1/1/95 - 10/22/14
 
SHARE

PRINT THIS DATA

[ ← Previous Day ]
WEATHER ALMANAC - JANUARY 29, 2013
[ Next Day → ]
[ °C ]   °F
Weather ElementAverageHighLow
Temperature78.8 °F84.2 °F (12:44 pm)75.2 °F (4:41 am)
Dewpoint72.5 °F73.4 °F (1:45 am)71.6 °F (4:41 am)
Humidity81.4 %89 % (1:45 am)66 % (12:44 pm)
Barometer30.03 in30.09 in (8:44 am)29.98 in (3:46 pm)
Wind Speed10.7 mph15 mph (9:45 am)
Weather ElementAverage
Visibility7 mi
Wind DirectionESE (124.8 °)

Weather ElementTotal
Precipitation---
Cooling Degree Days14.7 (Base 65)
Growing Degree Days29.7 (Base 50)
Averaged from 23 records on January 29, 2013
WEATHER CONDITIONS BREAKOUT
WIND DIRECTION BREAKOUT
WEATHER BY HOUR - JANUARY 29, 2013
[ °C ]   °F
Local TimeTemperatureDewpointHumidityBarometerVisibilityWind DirectionWind SpeedGust SpeedPrecipitationEventsConditions
1:45 AM77.0 °F73.4 °F89 %30.07 in7.0 miESE (110°)6.9 mphScattered Clouds
2:40 AM77.0 °F73.4 °F89 %30.06 in7.0 miESE (110°)6.9 mphScattered Clouds
3:43 AM77.0 °F73.4 °F89 %30.05 in7.0 miESE (120°)6.9 mphScattered Clouds
4:41 AM75.2 °F71.6 °F89 %30.05 in7.0 miESE (110°)4.6 mphScattered Clouds
5:40 AM75.2 °F71.6 °F89 %30.06 in7.0 miESE (110°)5.8 mphScattered Clouds
6:50 AM77.0 °F71.6 °F83 %30.07 in7.0 miESE (120°)10.4 mphScattered Clouds
7:48 AM78.8 °F73.4 °F83 %30.08 in7.0 miSE (130°)11.5 mphPartly Cloudy
8:44 AM82.4 °F71.6 °F70 %30.09 in7.0 miSE (140°)12.7 mphScattered Clouds
9:45 AM82.4 °F73.4 °F74 %30.09 in7.0 miSE (130°)15.0 mphScattered Clouds
10:53 AM82.4 °F71.6 °F70 %30.07 in7.0 miEast (100°)15.0 mphScattered Clouds
11:44 AM82.4 °F73.4 °F74 %30.07 in7.0 miESE (110°)13.8 mphMostly Cloudy
12:44 PM84.2 °F71.6 °F66 %30.03 in7.0 miSE (130°)15.0 mphMostly Cloudy
1:45 PM82.4 °F71.6 °F70 %30.00 in7.0 miESE (110°)11.5 mphMostly Cloudy
2:48 PM82.4 °F73.4 °F74 %29.99 in7.0 miSE (140°)15.0 mphMostly Cloudy
3:46 PM82.4 °F73.4 °F74 %29.98 in7.0 miESE (120°)13.8 mphMostly Cloudy
4:47 PM80.6 °F73.4 °F79 %29.98 in7.0 miSSE (150°)12.7 mphScattered Clouds
5:45 PM78.8 °F73.4 °F83 %29.98 in7.0 miSE (140°)12.7 mphScattered Clouds
6:45 PM78.8 °F73.4 °F83 %29.99 in7.0 miESE (120°)10.4 mphScattered Clouds
7:47 PM75.2 °F71.6 °F89 %29.99 in7.0 miSE (130°)8.1 mphScattered Clouds
8:44 PM75.2 °F71.6 °F89 %30.02 in7.0 miSE (130°)8.1 mphPartly Cloudy
9:48 PM75.2 °F71.6 °F89 %30.00 in7.0 miSE (130°)11.5 mphPartly Cloudy
10:47 PM75.2 °F71.6 °F89 %30.00 in7.0 miSE (140°)10.4 mphClear
11:46 PM75.2 °F71.6 °F89 %29.99 in7.0 miSE (140°)8.1 mphClear
Hourly data recorded from MMUN, located miles away from Cancun, Quintana Roo







STORIES FROM OUR PARTNERS